Location: Zapote
(9.9191°N, 84.0597°W)
Time: 13:46:59
(UTC-06:00)

Vanguard 1 - Visible Passes

Search period start: 28 February 2021 00:00
Search period end: 10 March 2021 00:00
Orbit: 649 x 3833 km, 34.2° (Epoch: 28 February)

Date Brightness Start Highest point End Pass type
(mag) Time Alt. Az. Time Alt. Az. Time Alt. Az.
28 Feb 13.4 21:06:24 10° SSW 21:11:00 15° S 21:11:00 15° S visible
01 Mar 13.3 21:26:08 10° SSW 21:30:36 17° S 21:30:36 17° S visible
02 Mar 13.4 19:25:24 10° S 19:31:27 12° SSE 19:36:39 10° SE visible
02 Mar 13.4 21:46:24 10° SSW 21:50:15 17° SSW 21:50:15 17° SSW visible
03 Mar 13.2 19:44:12 10° SSW 19:54:19 17° SSE 19:57:14 16° SSE visible
03 Mar 13.5 22:07:03 10° SW 22:09:56 16° SSW 22:09:56 16° SSW visible
04 Mar 13.0 20:03:58 10° SSW 20:16:47 22° SSE 20:16:58 22° SSE visible
04 Mar 13.6 22:28:03 10° SW 22:29:40 14° SW 22:29:40 14° SW visible
05 Mar 13.6 18:02:59 10° S 18:09:20 12° SSE 18:15:03 10° SSE visible
05 Mar 12.8 20:24:11 10° SSW 20:36:45 29° SSE 20:36:45 29° SSE visible
05 Mar 13.8 22:49:25 10° SW 22:49:27 10° SW 22:49:27 10° SW visible
06 Mar 13.4 18:21:48 10° S 18:32:43 16° SSE 18:41:36 10° SE visible
06 Mar 12.7 20:44:44 10° SSW 20:56:35 34° S 20:56:35 34° S visible
07 Mar 13.1 18:41:32 10° SSW 18:55:36 21° SSE 19:03:45 14° ESE visible
07 Mar 12.7 21:05:36 10° SW 21:16:28 37° SSW 21:16:28 37° SSW visible
08 Mar 12.8 19:01:41 10° SSW 19:18:06 27° SSE 19:23:42 23° SE visible
08 Mar 12.8 21:26:47 10° SW 21:36:25 36° SW 21:36:25 36° SW visible
09 Mar 12.5 19:22:07 10° SSW 19:40:17 36° SSE 19:43:42 33° SE visible
09 Mar 13.0 21:48:19 10° SW 21:56:27 31° SW 21:56:27 31° SW visible
